Akron, CO

1:46 AM MDT on August 20, 2017 (GMT -0600)
Akron-Washington County

Weather History for KAKO - December, 2013

Change the Weather History Date:

Saturday, December 28, 2013

  Actual Average Record
Temperature  
Mean Temperature 36 °F 28 °F  
Max Temperature 58 °F 40 °F 65 °F (1947)
Min Temperature 14 °F 16 °F -10 °F (1941)
Degree Days  
Heating Degree Days 29    
Month to date heating degree days 1061  
Cooling Degree Days 0    
Month to date cooling degree days 0  
Moisture  
Dew Point 16 °F    
Average Humidity 48    
Maximum Humidity 77    
Minimum Humidity 19    
Precipitation  
Precipitation T in 0.01 in 0.51 in (1948)
Month to date precipitation 0.02 0.37  
Year to date precipitation 16.98 16.71  
Sea Level Pressure  
Sea Level Pressure 30.02 in    
Wind  
Wind Speed 16 mph (NNW)    
Max Wind Speed 38 mph    
Max Gust Speed 44 mph    
Visibility 9 miles    
Events Snow    
T = Trace of Precipitation, MM = Missing Value Source: NWS Daily Summary

Daily Weather History Graph

Daily Weather History Graph

Search for Another Location

Airport or City:

Trip Planner

Search our weather history database for the weather conditions in past years. The results will help you decide how hot, cold, wet, or windy it might be!

Date:

Astronomy

Dec. 28, 2013 Rise Set
Actual Time 7:14 AM MST 4:34 PM MST
Civil Twilight 6:43 AM MST 5:05 PM MST
Nautical Twilight 6:09 AM MST 5:39 PM MST
Astronomical Twilight 5:36 AM MST 6:12 PM MST
Moon 2:53 AM MST (12/28) 1:27 PM MST (12/28)
Length of Visible Light 10h 21m
Length of Day
9h 20m
Waning Crescent, 18% of the Moon is Illuminated
Dec 28
Waning Crescent
Jan 1
New
Jan 7
First Quarter
Jan 15
Full
Jan 23
Last Quarter

Hourly Weather History & Observations

Time (MST) Temp. Windchill Dew Point Humidity Pressure Visibility Wind Dir Wind Speed Gust Speed Precip Events Conditions
12:53 AM 39.9 °F 32.5 °F 14.0 °F 35% 29.96 in 10.0 mi SW 12.7 mph - N/A   Clear
1:53 AM 28.9 °F 19.2 °F 16.0 °F 58% 29.97 in 10.0 mi West 11.5 mph - N/A   Clear
2:53 AM 34.0 °F 26.0 °F 15.1 °F 46% 29.93 in 10.0 mi West 10.4 mph - N/A   Clear
3:53 AM 30.9 °F 22.8 °F 15.1 °F 52% 29.91 in 10.0 mi WSW 9.2 mph - N/A   Clear
4:53 AM 32.0 °F 21.6 °F 16.0 °F 52% 29.92 in 10.0 mi West 15.0 mph - N/A   Clear
5:53 AM 30.0 °F 19.1 °F 16.0 °F 56% 29.93 in 10.0 mi West 15.0 mph - N/A   Clear
6:53 AM 30.9 °F 20.7 °F 16.0 °F 54% 29.92 in 10.0 mi West 13.8 mph - N/A   Clear
8:53 AM 36.0 °F 26.7 °F 19.0 °F 50% 29.90 in 10.0 mi West 15.0 mph - N/A   Clear
9:53 AM 42.1 °F 34.2 °F 21.0 °F 43% 29.87 in 10.0 mi West 16.1 mph - N/A   Clear
10:53 AM 48.9 °F - 21.9 °F 35% 29.84 in 10.0 mi WNW 13.8 mph - N/A   Clear
11:53 AM 52.0 °F - 21.9 °F 31% 29.82 in 10.0 mi NW 15.0 mph - N/A   Clear
12:53 PM 55.0 °F - 14.0 °F 20% 29.81 in 10.0 mi North 29.9 mph 41.4 mph N/A   Clear
1:53 PM 48.0 °F - 19.0 °F 32% 29.90 in 10.0 mi NNE 29.9 mph 38.0 mph N/A   Clear
2:53 PM 45.0 °F 35.6 °F 21.0 °F 39% 29.93 in 10.0 mi NNE 27.6 mph 38.0 mph N/A   Clear
3:53 PM 41.0 °F 31.6 °F 21.0 °F 45% 29.99 in 10.0 mi NNE 20.7 mph 33.4 mph N/A   Clear
4:53 PM 34.0 °F 25.5 °F 21.9 °F 61% 30.04 in 10.0 mi NNE 11.5 mph - N/A   Clear
5:53 PM 32.0 °F 18.9 °F 18.0 °F 56% 30.11 in 10.0 mi North 24.2 mph 34.5 mph N/A   Mostly Cloudy
6:02 PM 30.9 °F 16.9 °F 18.0 °F 59% 30.04 in 10.0 mi North 26.5 mph 35.7 mph N/A   Mostly Cloudy
6:32 PM 28.9 °F 14.0 °F 17.1 °F 61% 30.06 in 10.0 mi North 27.6 mph 34.5 mph N/A   Overcast
6:53 PM 27.0 °F 12.8 °F 15.1 °F 61% 30.17 in 10.0 mi North 21.9 mph 32.2 mph N/A   Mostly Cloudy
7:53 PM 24.1 °F 11.0 °F 14.0 °F 65% 30.19 in 10.0 mi North 16.1 mph - N/A   Mostly Cloudy
8:53 PM 21.9 °F 5.8 °F 15.1 °F 75% 30.21 in 10.0 mi North 23.0 mph - N/A   Overcast
9:53 PM 19.0 °F 4.0 °F 12.9 °F 77% 30.23 in 10.0 mi NNE 17.3 mph - N/A   Overcast
10:53 PM 17.1 °F 1.0 °F 10.0 °F 74% 30.26 in 10.0 mi North 18.4 mph - N/A   Overcast
11:25 PM 15.1 °F -0.6 °F 9.0 °F 77% 30.20 in 2.5 mi North 16.1 mph - 0.00 in Snow Light Snow
11:39 PM 14.0 °F -2.0 °F 10.0 °F 84% 30.21 in 2.0 mi North 16.1 mph - 0.00 in Snow Light Snow
11:53 PM 14.0 °F -0.8 °F 10.0 °F 84% 30.28 in 1.5 mi North 13.8 mph - 0.00 in Snow Light Snow